This demonstration page uses our WeatherBlox Daily Observations layout. Learn more.

Left ArrowRight Arrow

Hourly Observations for August 18, 2021

Temp ( °F °C ) Dew Point ( °F °C ) Humidity (%) Winds ( mph kmh ) Pressure ( in mb ) Visibility ( mi km ) Precip ( " mm )
12:53 am 00:53 Cloudy with Smoke 76 24.4 28 -2.2 17 17 N 18 30 29.78 1009 10 16 0.00 0.00
1:53 am 01:53 Cloudy with Smoke 74 23.3 31 -0.6 20 20 N 14 22 29.79 1009 10 16 0.00 0.00
2:53 am 02:53 Cloudy with Haze 73 22.8 34 1.1 24 24 N 16 26 29.80 1009 6 10 0.00 0.00
3:53 am 03:53 Cloudy with Haze 71 21.7 36 2.2 28 28 N 15 24 29.82 1010 5 8 0.00 0.00
4:29 am 04:29 Cloudy with Haze 72 22.2 36 2.2 27 27 N 15 24 29.82 1010 3 4 0.00 0.00
4:53 am 04:53 Cloudy with Haze 71 21.7 37 2.8 29 29 N 16 26 29.82 1010 3 5 0.00 0.00
5:53 am 05:53 Cloudy with Haze 71 21.7 37 2.8 29 29 N 17 28 29.83 1010 3 5 0.00 0.00
6:30 am 06:30 Hazy 70 21.1 38 3.3 31 31 N 16 26 29.86 1011 3 5 0.00 0.00
6:53 am 06:53 Hazy 70 21.1 38 3.3 31 31 N 15 24 29.85 1011 4 6 0.00 0.00
7:53 am 07:53 Sunny with Smoke 72 22.2 38 3.3 29 29 N 25 41 29.87 1011 8 13 0.00 0.00
8:53 am 08:53 Sunny with Smoke 74 23.3 37 2.8 26 26 N 26 43 29.86 1011 9 14 0.00 0.00
9:53 am 09:53 Sunny with Smoke 77 25 38 3.3 24 24 N 28 44 29.86 1011 10 16 0.00 0.00
10:53 am 10:53 Sunny with Smoke 80 26.7 39 3.9 23 23 N 29 46 29.86 1011 9 14 0.00 0.00
11:53 am 11:53 Sunny with Smoke 83 28.3 39 3.9 21 21 N 29 46 29.84 1011 8 13 0.00 0.00
12:53 pm 12:53 Sunny with Smoke 86 30 38 3.3 18 18 NNE 30 48 29.84 1010 9 14 0.00 0.00
1:53 pm 13:53 Sunny with Smoke 89 31.7 37 2.8 16 16 NNE 30 48 29.82 1010 10 16 0.00 0.00
2:53 pm 14:53 Sunny with Smoke 91 32.8 38 3.3 15 15 NNE 20 31 29.81 1009 9 14 0.00 0.00
3:53 pm 15:53 Sunny with Smoke 93 33.9 37 2.8 14 14 NNE 23 37 29.78 1009 10 16 0.00 0.00
4:53 pm 16:53 Sunny with Smoke 93 33.9 37 2.8 14 14 NNE 16 26 29.78 1009 10 16 0.00 0.00
5:53 pm 17:53 Sunny with Smoke 92 33.3 37 2.8 14 14 NNE 17 28 29.78 1009 8 13 0.00 0.00
6:53 pm 18:53 Mostly Cloudy with Haze 90 32.2 38 3.3 16 16 N 13 20 29.79 1009 3 5 0.00 0.00
7:53 pm 19:53 Mostly Cloudy with Haze 88 31.1 38 3.3 17 17 N 8 13 29.80 1009 3 5 0.00 0.00
8:53 pm 20:53 Cloudy with Haze 84 28.9 39 3.9 20 20 N 7 11 29.81 1009 4 6 0.00 0.00
9:53 pm 21:53 Cloudy with Haze 81 27.2 40 4.4 23 23 N 3 6 29.83 1010 4 6 0.00 0.00
10:53 pm 22:53 Mostly Cloudy with Haze 80 26.7 42 5.6 26 26 NNW 7 11 29.84 1011 5 8 0.00 0.00
11:53 pm 23:53 Cloudy with Haze 76 24.4 42 5.6 30 30 ENE 3 6 29.86 1011 5 8 0.00 0.00

Powered by AerisWeather